Retour au catalogue

STARLINK-32299

ActifCommunicationsVLEO
NORAD 61702·PAYLOAD·🇺🇸 United States

Lancé Oct 30, 2024 depuis Vandenberg Space Force Base

Loading…

Prochains Passages (prochaines 24 heures)

TLE

FraisSource: CelesTrak SupGP

Époque: Sep 14, 2026, 22:40 UTC

1 61702C 24195R   26257.94493056 -.00009280  00000+0 -27435-3 0  2570
2 61702  53.1594 351.9123 0001210  82.8246 110.2568 15.34376349    12

Suivez STARLINK-32299 en temps réel avec AllMySat

Download on the App Store